Time,TemperatureF,DewpointF,PressureIn,WindDirection,WindDirectionDegrees,WindSpeedMPH,WindSpeedGustMPH,Humidity,HourlyPrecipIn,Conditions,Clouds,dailyrainin,SolarRadiationWatts/m^2,SoftwareType,DateUTC
2013-05-12 00:03:00,-999.0,-99.9,-100.00,North,8,8.0,16.0,87,0.00,,,0.30,0.000000,,2013-05-12 04:03:00,
2013-05-12 00:12:00,47.0,43.0,-100.00,North,8,8.0,16.0,87,0.00,,,0.30,0.000000,,2013-05-12 04:12:00,
2013-05-12 00:43:00,47.0,42.0,-100.00,NNE,22,8.0,16.0,84,0.00,,,0.26,0.000000,,2013-05-12 04:43:00,
2013-05-12 00:52:00,47.0,42.0,-100.00,NNE,22,8.0,16.0,84,0.00,,,0.26,0.000000,,2013-05-12 04:52:00,
2013-05-12 01:02:00,47.0,42.0,-100.00,NNE,22,8.0,16.0,84,0.00,,,0.26,0.000000,,2013-05-12 05:02:00,
2013-05-12 01:12:00,47.0,42.0,-100.00,NNE,22,8.0,16.0,84,0.00,,,0.26,0.000000,,2013-05-12 05:12:00,
2013-05-12 01:42:00,46.0,41.0,-100.00,North,6,7.0,15.0,83,0.00,,,0.23,0.000000,,2013-05-12 05:42:00,
2013-05-12 01:52:00,46.0,41.0,-100.00,North,6,7.0,15.0,83,0.00,,,0.23,0.000000,,2013-05-12 05:52:00,
2013-05-12 02:02:00,46.0,41.0,-100.00,North,6,7.0,15.0,83,0.00,,,0.23,0.000000,,2013-05-12 06:02:00,
2013-05-12 02:11:00,46.0,41.0,-100.00,North,6,7.0,15.0,83,0.00,,,0.23,0.000000,,2013-05-12 06:11:00,
2013-05-12 02:42:00,46.0,42.0,-100.00,North,3,8.0,14.0,86,0.00,,,0.20,0.000000,,2013-05-12 06:42:00,
2013-05-12 02:52:00,46.0,42.0,-100.00,North,3,8.0,14.0,86,0.00,,,0.20,0.000000,,2013-05-12 06:52:00,
2013-05-12 03:02:00,46.0,42.0,-100.00,North,3,8.0,14.0,86,0.00,,,0.20,0.000000,,2013-05-12 07:02:00,
2013-05-12 03:11:00,46.0,42.0,-100.00,North,3,8.0,14.0,86,0.00,,,0.20,0.000000,,2013-05-12 07:11:00,
2013-05-12 03:42:00,46.0,42.0,-100.00,NNW,341,5.0,14.0,87,0.00,,,0.20,0.000000,,2013-05-12 07:42:00,
2013-05-12 03:52:00,46.0,42.0,-100.00,NNW,341,5.0,14.0,87,0.00,,,0.20,0.000000,,2013-05-12 07:52:00,
2013-05-12 04:02:00,46.0,42.0,-100.00,NNW,341,5.0,14.0,87,0.00,,,0.20,0.000000,,2013-05-12 08:02:00,
2013-05-12 04:11:00,46.0,42.0,-100.00,NNW,341,5.0,14.0,87,0.00,,,0.20,0.000000,,2013-05-12 08:11:00,
2013-05-12 04:42:00,45.0,43.0,-100.00,NNW,347,6.0,13.0,91,0.00,,,0.18,0.000000,,2013-05-12 08:42:00,
2013-05-12 04:53:00,45.0,43.0,-100.00,NNW,347,6.0,13.0,91,0.00,,,0.18,0.000000,,2013-05-12 08:53:00,
2013-05-12 05:01:00,45.0,43.0,-100.00,NNW,347,6.0,13.0,91,0.00,,,0.18,0.000000,,2013-05-12 09:01:00,
2013-05-12 05:11:00,45.0,43.0,-100.00,NNW,347,6.0,13.0,91,0.00,,,0.18,0.000000,,2013-05-12 09:11:00,
2013-05-12 05:43:00,42.0,39.0,-100.00,NNE,17,8.0,19.0,90,0.00,,,0.17,0.000000,,2013-05-12 09:43:00,
2013-05-12 05:53:00,42.0,39.0,-100.00,NNE,17,8.0,19.0,90,0.00,,,0.17,0.000000,,2013-05-12 09:53:00,
2013-05-12 06:03:00,42.0,39.0,-100.00,NNE,17,8.0,19.0,90,0.00,,,0.17,0.000000,,2013-05-12 10:03:00,
2013-05-12 06:12:00,42.0,39.0,-100.00,NNE,17,8.0,19.0,90,0.00,,,0.17,0.000000,,2013-05-12 10:12:00,
2013-05-12 06:42:00,40.0,34.0,-100.00,NNE,17,10.0,19.0,79,0.00,,,0.16,5.000000,,2013-05-12 10:42:00,
2013-05-12 06:52:00,40.0,34.0,-100.00,NNE,17,10.0,19.0,79,0.00,,,0.16,5.000000,,2013-05-12 10:52:00,
2013-05-12 07:03:00,40.0,34.0,-100.00,NNE,17,10.0,19.0,79,0.00,,,0.16,5.000000,,2013-05-12 11:03:00,
2013-05-12 07:12:00,40.0,34.0,-100.00,NNE,17,10.0,19.0,79,0.00,,,0.16,5.000000,,2013-05-12 11:12:00,
2013-05-12 07:42:00,40.0,31.0,-100.00,NE,39,12.0,23.0,70,0.00,,,0.15,117.000000,,2013-05-12 11:42:00,
2013-05-12 07:52:00,40.0,31.0,-100.00,NE,39,12.0,23.0,70,0.00,,,0.15,117.000000,,2013-05-12 11:52:00,
2013-05-12 08:02:00,40.0,31.0,-100.00,NE,39,12.0,23.0,70,0.00,,,0.15,117.000000,,2013-05-12 12:02:00,
2013-05-12 08:11:00,40.0,31.0,-100.00,NE,39,12.0,23.0,70,0.00,,,0.15,117.000000,,2013-05-12 12:11:00,
2013-05-12 08:42:00,37.0,27.0,-100.00,NE,44,12.0,23.0,68,0.00,,,0.15,198.000000,,2013-05-12 12:42:00,
2013-05-12 08:52:00,37.0,27.0,-100.00,NE,44,12.0,23.0,68,0.00,,,0.15,198.000000,,2013-05-12 12:52:00,
2013-05-12 09:02:00,37.0,27.0,-100.00,NE,44,12.0,23.0,68,0.00,,,0.15,198.000000,,2013-05-12 13:02:00,
2013-05-12 09:11:00,37.0,27.0,-100.00,NE,44,12.0,23.0,68,0.00,,,0.15,198.000000,,2013-05-12 13:11:00,
2013-05-12 09:42:00,41.0,27.0,-100.00,NNE,16,13.0,22.0,56,0.00,,,0.01,433.000000,,2013-05-12 13:42:00,
2013-05-12 09:52:00,41.0,27.0,-100.00,NNE,16,13.0,22.0,56,0.00,,,0.01,433.000000,,2013-05-12 13:52:00,
2013-05-12 10:01:00,41.0,27.0,-100.00,NNE,16,13.0,22.0,56,0.00,,,0.01,433.000000,,2013-05-12 14:01:00,
2013-05-12 10:11:00,41.0,27.0,-100.00,NNE,16,13.0,22.0,56,0.00,,,0.01,433.000000,,2013-05-12 14:11:00,
2013-05-12 10:42:00,43.0,27.0,-100.00,NNE,27,10.0,24.0,52,0.00,,,0.01,586.000000,,2013-05-12 14:42:00,
2013-05-12 10:52:00,43.0,27.0,-100.00,NNE,27,10.0,24.0,52,0.00,,,0.01,586.000000,,2013-05-12 14:52:00,
2013-05-12 11:01:00,43.0,27.0,-100.00,NNE,27,10.0,24.0,52,0.00,,,0.01,586.000000,,2013-05-12 15:01:00,
2013-05-12 11:11:00,43.0,27.0,-100.00,NNE,27,10.0,24.0,52,0.00,,,0.01,586.000000,,2013-05-12 15:11:00,
2013-05-12 11:42:00,45.0,28.0,-100.00,NNE,12,11.0,23.0,52,0.00,,,0.00,596.000000,,2013-05-12 15:42:00,
2013-05-12 11:53:00,45.0,28.0,-100.00,NNE,12,11.0,23.0,52,0.00,,,0.00,596.000000,,2013-05-12 15:53:00,
2013-05-12 12:02:00,45.0,28.0,-100.00,NNE,12,11.0,23.0,52,0.00,,,0.00,596.000000,,2013-05-12 16:02:00,
2013-05-12 12:13:00,45.0,28.0,-100.00,NNE,12,11.0,23.0,52,0.00,,,0.00,596.000000,,2013-05-12 16:13:00,
2013-05-12 12:42:00,44.0,24.0,-100.00,NNE,22,11.0,24.0,45,0.00,,,0.00,563.000000,,2013-05-12 16:42:00,
2013-05-12 12:53:00,44.0,24.0,-100.00,NNE,22,11.0,24.0,45,0.00,,,0.00,563.000000,,2013-05-12 16:53:00,
2013-05-12 13:02:00,44.0,24.0,-100.00,NNE,22,11.0,24.0,45,0.00,,,0.00,563.000000,,2013-05-12 17:02:00,
2013-05-12 13:12:00,44.0,24.0,-100.00,NNE,22,11.0,24.0,45,0.00,,,0.00,563.000000,,2013-05-12 17:12:00,
2013-05-12 13:42:00,45.0,23.0,-100.00,NNE,20,14.0,26.0,41,0.00,,,0.00,523.000000,,2013-05-12 17:42:00,
2013-05-12 13:53:00,45.0,23.0,-100.00,NNE,20,14.0,26.0,41,0.00,,,0.00,523.000000,,2013-05-12 17:53:00,
2013-05-12 14:01:00,45.0,23.0,-100.00,NNE,20,14.0,26.0,41,0.00,,,0.00,523.000000,,2013-05-12 18:01:00,
2013-05-12 14:12:00,45.0,23.0,-100.00,NNE,20,14.0,26.0,41,0.00,,,0.00,523.000000,,2013-05-12 18:12:00,
2013-05-12 14:42:00,50.0,28.0,-100.00,NNE,13,11.0,22.0,43,0.00,,,0.00,718.000000,,2013-05-12 18:42:00,
2013-05-12 14:52:00,50.0,28.0,-100.00,NNE,13,11.0,22.0,43,0.00,,,0.00,718.000000,,2013-05-12 18:52:00,
2013-05-12 15:01:00,50.0,28.0,-100.00,NNE,13,11.0,22.0,43,0.00,,,0.00,718.000000,,2013-05-12 19:01:00,
2013-05-12 15:11:00,50.0,28.0,-100.00,NNE,13,11.0,22.0,43,0.00,,,0.00,718.000000,,2013-05-12 19:11:00,
2013-05-12 15:42:00,46.0,32.0,-100.00,NNE,25,8.0,21.0,59,0.00,,,0.00,356.000000,,2013-05-12 19:42:00,
2013-05-12 15:52:00,46.0,32.0,-100.00,NNE,25,8.0,21.0,59,0.00,,,0.00,356.000000,,2013-05-12 19:52:00,
2013-05-12 16:02:00,46.0,32.0,-100.00,NNE,25,8.0,21.0,59,0.00,,,0.00,356.000000,,2013-05-12 20:02:00,
2013-05-12 16:11:00,46.0,32.0,-100.00,NNE,25,8.0,21.0,59,0.00,,,0.00,356.000000,,2013-05-12 20:11:00,
2013-05-12 16:42:00,44.0,29.0,-100.00,North,6,10.0,27.0,56,0.00,,,0.00,327.000000,,2013-05-12 20:42:00,
2013-05-12 16:52:00,44.0,29.0,-100.00,North,6,10.0,27.0,56,0.00,,,0.00,327.000000,,2013-05-12 20:52:00,
2013-05-12 17:01:00,44.0,29.0,-100.00,North,6,10.0,27.0,56,0.00,,,0.00,327.000000,,2013-05-12 21:01:00,
2013-05-12 17:11:00,44.0,29.0,-100.00,North,6,10.0,27.0,56,0.00,,,0.00,327.000000,,2013-05-12 21:11:00,
2013-05-12 17:33:00,42.0,31.0,-100.00,NNE,17,12.0,25.0,66,0.01,,,0.01,309.000000,,2013-05-12 21:33:00,
2013-05-12 17:42:00,42.0,31.0,-100.00,NNE,17,12.0,25.0,66,0.01,,,0.01,309.000000,,2013-05-12 21:42:00,
2013-05-12 17:53:00,42.0,31.0,-100.00,NNE,17,12.0,25.0,66,0.01,,,0.01,309.000000,,2013-05-12 21:53:00,
2013-05-12 18:02:00,42.0,31.0,-100.00,NNE,17,12.0,25.0,66,0.01,,,0.01,309.000000,,2013-05-12 22:02:00,
2013-05-12 18:12:00,42.0,31.0,-100.00,NNE,17,12.0,25.0,66,0.01,,,0.01,309.000000,,2013-05-12 22:12:00,
2013-05-12 18:42:00,41.0,36.0,-100.00,NNE,14,11.0,31.0,83,0.00,,,0.01,219.000000,,2013-05-12 22:42:00,
2013-05-12 18:52:00,41.0,36.0,-100.00,NNE,14,11.0,31.0,83,0.00,,,0.01,219.000000,,2013-05-12 22:52:00,
2013-05-12 19:02:00,41.0,36.0,-100.00,NNE,14,11.0,31.0,83,0.00,,,0.01,219.000000,,2013-05-12 23:02:00,
2013-05-12 19:12:00,41.0,36.0,-100.00,NNE,14,11.0,31.0,83,0.00,,,0.01,219.000000,,2013-05-12 23:12:00,
2013-05-12 19:42:00,41.0,31.0,-100.00,North,2,13.0,28.0,66,0.00,,,0.01,142.000000,,2013-05-12 23:42:00,
2013-05-12 19:52:00,41.0,31.0,-100.00,North,2,13.0,28.0,66,0.00,,,0.01,142.000000,,2013-05-12 23:52:00,
2013-05-12 20:01:00,41.0,31.0,-100.00,North,2,13.0,28.0,66,0.00,,,0.01,142.000000,,2013-05-13 00:01:00,
2013-05-12 20:11:00,41.0,31.0,-100.00,North,2,13.0,28.0,66,0.00,,,0.01,142.000000,,2013-05-13 00:11:00,
2013-05-12 20:42:00,38.0,28.0,-100.00,NNE,16,12.0,30.0,66,0.00,,,0.01,24.000000,,2013-05-13 00:42:00,
2013-05-12 20:52:00,38.0,28.0,-100.00,NNE,16,12.0,30.0,66,0.00,,,0.01,24.000000,,2013-05-13 00:52:00,
2013-05-12 21:01:00,38.0,28.0,-100.00,NNE,16,12.0,30.0,66,0.00,,,0.01,24.000000,,2013-05-13 01:01:00,
2013-05-12 21:11:00,38.0,28.0,-100.00,NNE,16,12.0,30.0,66,0.00,,,0.01,24.000000,,2013-05-13 01:11:00,
2013-05-12 21:42:00,37.0,26.0,-100.00,North,11,9.0,22.0,63,0.00,,,0.01,1.000000,,2013-05-13 01:42:00,
2013-05-12 21:52:00,37.0,26.0,-100.00,North,11,9.0,22.0,63,0.00,,,0.01,1.000000,,2013-05-13 01:52:00,
2013-05-12 22:02:00,37.0,26.0,-100.00,North,11,9.0,22.0,63,0.00,,,0.01,1.000000,,2013-05-13 02:02:00,
2013-05-12 22:11:00,37.0,26.0,-100.00,North,11,9.0,22.0,63,0.00,,,0.01,1.000000,,2013-05-13 02:11:00,
2013-05-12 22:32:00,36.0,25.0,-100.00,North,1,10.0,17.0,63,0.00,,,0.01,0.000000,,2013-05-13 02:32:00,
2013-05-12 22:42:00,36.0,25.0,-100.00,North,1,10.0,17.0,63,0.00,,,0.01,0.000000,,2013-05-13 02:42:00,
2013-05-12 22:52:00,36.0,25.0,-100.00,North,1,10.0,17.0,63,0.00,,,0.01,0.000000,,2013-05-13 02:52:00,
2013-05-12 23:02:00,36.0,25.0,-100.00,North,1,10.0,17.0,63,0.00,,,0.01,0.000000,,2013-05-13 03:02:00,
2013-05-12 23:11:00,36.0,25.0,-100.00,North,1,10.0,17.0,63,0.00,,,0.01,0.000000,,2013-05-13 03:11:00,
2013-05-12 23:42:00,36.0,24.0,-100.00,North,6,9.0,20.0,61,0.00,,,0.01,0.000000,,2013-05-13 03:42:00,
2013-05-12 23:53:00,36.0,24.0,-100.00,North,6,9.0,20.0,61,0.00,,,0.01,0.000000,,2013-05-13 03:53:00,